Temperature
15 15 15 15 15 15 15 15 15 15 15 15 15 15 15 15 15 15 15 15 15 15 15 15 15 15 15 15 15 15 15 15 15 15 15 15 15 15 15 15 15 15 15
15 15 15 15 15 15 15 15 15 15 15 15 15 15 15 15 15 15 15 15 15 15 15 14 15 15 15 15 15 15 15 15 15 15 15 15 15 15 15 15 15 15 15
15 15 15 15 15 15 15 15 15 15 15 15 15 14 14 14 15 15 15 15 15 15 14 14 14 14 14 14 14 15 15 15 15 14 14 14 14 14 14 14 14 14 14
15 15 15 15 15 15 15 15 15 15 15 15 14 14 14 14 14 14 14 14 14 14 14 14 14 14 14 14 14 14 14 14 14 14 14 14 14 14 14 14 14 14 14
15 15 15 15 15 15 15 15 15 15 14 14 14 14 14 14 14 14 14 14 14 14 14 14 14 14 14 14 14 14 14 14 14 14 14 14 14 14 14 14 14 14 13
15 15 15 14 14 14 14 14 14 14 14 14 14 14 14 14 14 14 14 14 14 14 14 14 14 14 14 14 14 14 14 14 14 14 14 14 14 14 13 13 13 13 13
15 15 14 14 14 14 14 14 14 14 14 14 14 14 14 14 14 14 14 14 14 14 14 14 14 14 14 14 14 14 14 14 14 14 13 13 13 13 13 13 13 13 13
15 14 14 14 14 14 14 14 14 14 14 14 14 14 14 14 14 14 14 13 13 13 13 13 13 14 14 14 14 14 14 14 13 13 13 13 13 13 13 13 13 13 13
14 14 14 14 14 14 14 14 14 14 14 14 14 14 14 14 13 13 13 13 13 13 13 13 13 13 13 13 13 13 13 13 13 13 13 13 13 13 13 12 12 12 12
14 14 14 14 14 14 14 14 14 14 14 14 14 14 14 14 14 13 13 13 13 13 13 13 13 13 13 13 13 13 13 13 13 13 13 12 12 12 12 12 12 12 12
15 14 14 14 14 14 14 14 14 14 14 14 14 14 14 14 14 14 13 13 13 13 13 13 13 13 13 13 13 13 13 13 13 13 12 12 12 12 12 12 12 11 11
15 15 15 14 14 14 14 14 14 14 14 14 14 14 14 14 14 14 13 13 13 13 13 13 13 13 13 13 13 13 13 13 13 12 12 12 12 12 12 12 11 11 11
15 15 15 14 14 14 14 14 14 14 14 14 14 14 14 14 14 14 14 13 13 13 13 13 13 12 12 12 12 12 12 12 12 12 12 12 12 12 12 11 11 11 11
15 15 15 15 15 14 14 14 14 14 14 14 14 14 14 14 14 14 14 13 13 13 13 13 12 12 12 12 12 12 12 12 12 12 12 12 12 11 11 11 11 11 10
15 15 15 15 14 14 14 14 14 14 14 14 14 14 14 14 14 14 13 13 13 13 12 12 12 12 12 12 12 12 12 12 12 12 11 11 11 11 11 11 11 10 10
15 15 14 14 14 14 14 14 14 14 14 14 14 14 14 14 14 14 13 13 13 13 12 12 12 12 12 12 12 12 12 12 12 11 11 11 11 11 11 10 10 10 10
15 15 15 14 14 14 14 14 14 14 14 14 14 14 14 14 14 13 13 13 13 13 13 12 12 12 12 12 12 12 12 11 11 11 11 11 11 10 10 10 10 10 9
15 15 15 14 14 14 14 14 14 14 14 14 14 14 14 14 13 13 13 13 13 13 13 12 12 12 12 12 11 11 11 11 11 11 11 10 10 10 10 10 9 9 9
15 15 15 14 14 14 14 14 14 14 14 14 14 13 13 13 13 13 13 13 13 13 12 12 12 12 12 12 11 11 11 11 11 11 10 10 10 10 10 9 9 9 9
15 15 14 14 14 14 14 14 14 14 13 13 13 13 13 13 13 13 13 13 13 13 12 12 12 12 11 11 11 11 11 11 10 10 10 10 10 9 9 9 9 9 8
14 14 14 14 14 14 14 14 14 13 13 13 13 13 13 13 13 12 12 12 12 12 12 12 12 11 11 11 11 11 10 10 10 10 10 10 9 9 9 9 9 9 8
14 14 14 14 14 14 14 14 13 13 13 13 13 13 13 12 12 12 12 12 12 12 12 11 11 11 11 11 11 10 10 10 10 9 9 9 9 9 9 9 8 8 8
14 14 14 14 14 14 13 13 13 13 13 13 13 13 12 12 12 12 12 12 12 11 11 11 11 11 11 10 10 10 10 10 9 9 9 9 9 9 8 8 8 8 7
14 14 14 14 13 13 13 13 13 13 13 13 13 12 12 12 12 12 12 12 12 11 11 11 11 10 10 10 10 10 9 9 9 9 8 8 8 8 8 8 8 7 7
14 14 13 13 13 13 13 13 13 12 12 12 12 12 12 12 12 11 11 11 11 11 11 10 10 10 10 10 9 9 9 9 9 8 8 8 8 8 8 7 7 7 7
14 13 13 13 13 13 13 12 12 12 12 12 12 12 12 12 11 11 11 11 11 11 10 10 10 10 10 9 9 9 8 8 8 8 7 7 7 7 7 7 7 7 6
Wind_Speed
2 3 3 4 5 6 6 6 6 7 7 7 8 8 7 8 8 9 8 11 11 11 10 11 11 10 11 11 11 11 11 11 11 11 12 12 11 10 10 9 9 9 10
3 3 3 4 5 6 6 6 6 6 5 6 6 7 7 7 8 9 9 10 11 11 10 11 10 11 10 11 11 11 11 11 11 12 12 12 12 12 11 11 11 11 11
4 4 3 3 4 6 7 7 7 6 5 5 6 6 6 7 7 8 9 9 9 10 11 11 11 10 10 10 10 10 11 11 12 12 12 12 12 12 12 11 12 12 12
5 5 4 3 5 6 6 5 5 5 5 5 5 5 5 6 6 7 8 8 9 8 9 11 10 10 10 11 11 10 11 11 12 12 12 12 12 12 12 12 11 11 12
5 6 4 4 6 5 4 4 4 4 5 5 5 5 4 4 4 5 6 7 8 8 8 9 10 10 10 10 10 10 10 10 11 12 12 12 12 12 11 11 11 11 11
5 6 5 4 5 4 4 4 5 5 4 4 5 5 5 4 4 4 4 6 7 8 8 9 9 9 10 10 9 9 9 9 10 11 11 12 12 12 11 11 11 11 11
5 5 4 4 4 4 4 5 4 5 3 2 3 4 4 4 5 4 4 4 5 6 7 7 7 7 7 8 9 9 9 8 9 10 10 10 10 11 11 11 11 11 11
4 5 4 3 3 4 4 4 4 3 2 2 3 3 2 4 4 4 4 3 4 5 5 6 7 7 7 7 8 8 8 7 8 8 8 9 9 10 11 11 10 11 11
3 4 4 4 4 3 3 3 3 3 2 2 2 3 3 1 1 3 4 4 4 3 4 5 6 6 6 7 7 8 8 7 7 7 7 8 8 9 9 10 10 10 10
3 3 4 4 3 3 3 2 2 2 3 2 1 2 2 3 2 1 3 3 4 4 3 4 4 5 6 7 7 8 8 7 7 7 7 7 7 8 8 9 9 9 9
3 3 3 4 3 2 2 2 2 2 2 2 2 2 2 2 2 2 0 3 3 3 3 3 3 4 6 6 6 8 9 9 8 8 7 7 8 8 8 9 9 8 9
2 2 3 3 3 2 2 2 2 3 2 2 2 2 2 2 2 2 2 0 1 2 3 3 3 4 5 5 6 7 8 8 8 8 8 8 8 8 8 8 9 9 9
1 0 2 2 2 2 2 3 3 3 3 3 3 2 1 1 2 3 3 1 1 2 3 3 3 3 4 4 5 6 7 7 7 8 8 8 8 7 7 8 8 9 9
1 1 2 2 2 2 2 3 3 2 2 3 3 2 2 1 2 3 3 3 2 2 2 2 2 3 3 4 4 5 5 6 6 7 7 8 8 8 7 7 8 8 8
1 2 2 2 2 2 3 3 2 2 3 2 2 2 2 2 2 2 2 3 4 2 1 2 2 2 3 3 4 4 4 4 5 5 6 7 7 7 7 7 7 7 7
2 2 2 2 2 2 3 3 2 2 4 2 2 3 2 2 2 2 2 2 2 3 1 1 1 1 2 3 4 4 4 4 4 4 5 5 6 6 6 6 7 7 6
2 2 3 3 3 2 2 2 2 3 3 2 2 3 2 2 2 2 2 2 2 3 3 1 1 1 2 2 3 4 4 4 3 3 4 4 5 5 6 6 6 6 6
2 2 3 3 3 3 3 3 3 3 3 3 2 2 2 2 2 2 2 2 2 2 3 2 0 1 1 1 2 2 3 3 2 3 4 3 4 4 5 5 5 6 5
2 2 3 3 3 3 3 3 3 3 3 3 3 2 1 2 2 1 2 2 1 2 2 3 1 0 1 1 2 2 2 2 2 2 3 3 3 4 4 4 4 4 4
3 2 2 3 3 3 3 3 4 3 3 2 2 2 2 2 2 2 2 2 2 3 3 3 1 0 1 1 1 1 2 2 2 2 2 3 3 3 3 4 4 3 2
3 3 3 3 2 3 3 4 4 4 3 2 2 1 1 1 2 2 2 3 3 3 2 2 1 0 0 1 1 1 1 2 2 1 2 2 2 3 4 4 4 3 2
2 3 3 3 3 2 4 6 5 4 3 3 2 1 1 1 1 2 3 4 5 4 4 3 2 1 2 2 1 1 0 1 2 1 1 2 1 2 3 4 4 3 3
3 3 3 3 3 3 4 5 6 5 3 3 2 2 1 1 1 2 2 2 2 3 5 4 3 3 2 3 2 1 1 2 3 1 0 2 2 2 4 4 4 4 4
3 3 3 3 2 2 4 5 7 5 3 2 2 2 2 1 1 3 3 2 1 1 1 2 3 3 2 3 3 2 2 1 2 1 0 2 2 3 3 4 4 4 4
3 3 2 3 3 2 3 5 7 4 3 2 1 1 2 2 2 4 4 2 1 2 1 1 1 1 1 2 4 2 1 1 2 2 0 1 2 2 2 2 4 4 4
3 3 2 3 3 3 3 5 7 4 3 2 1 1 2 3 3 4 4 3 2 2 0 1 2 2 2 1 2 3 2 1 1 2 1 1 1 1 2 2 3 4 4
Wind_Direction
65 58 57 59 61 70 76 77 80 79 76 72 69 69 64 57 52 50 47 56 61 63 66 69 71 74 75 73 71 69 68 66 66 66 65 63 62 59 57 56 54 51 47
85 79 68 63 65 74 81 84 83 80 76 74 65 61 57 54 50 50 47 47 54 57 59 59 63 65 70 71 70 70 68 67 67 66 65 62 59 57 56 57 54 51 48
93 97 82 69 73 85 89 87 81 79 77 72 61 54 53 50 49 48 47 45 46 50 54 57 58 59 62 65 68 70 68 67 67 65 64 63 61 59 57 56 54 52 50
102 99 84 74 83 88 91 89 81 76 69 68 62 48 46 47 47 48 50 49 49 46 49 54 54 55 59 61 62 66 69 70 69 65 62 61 61 60 57 55 53 51 48
100 102 92 88 92 88 79 89 77 81 83 77 73 55 42 42 39 51 51 48 47 45 45 45 49 51 54 54 56 59 64 70 71 69 65 61 60 61 59 56 53 51 49
103 103 98 93 95 87 76 80 85 72 78 83 82 65 46 38 37 43 44 45 45 45 46 47 45 44 47 48 50 53 57 64 72 71 68 63 60 59 58 56 53 52 50
110 109 105 96 94 94 96 96 94 83 70 73 78 56 34 40 43 36 39 43 40 42 47 46 46 45 42 42 44 49 53 60 69 70 68 64 60 58 57 55 54 54 52
108 119 117 120 113 105 97 93 97 97 70 56 95 88 36 11 19 29 30 37 34 38 42 45 49 47 44 41 39 44 46 56 66 69 69 65 61 58 54 53 52 54 52
85 105 120 125 126 121 125 119 112 113 116 50 62 118 125 192 342 4 21 28 24 29 33 40 45 42 43 44 39 42 44 50 61 67 69 66 61 57 54 51 52 52 51
71 89 108 121 121 120 130 139 126 124 125 118 59 61 108 147 137 15 355 9 22 31 37 42 40 38 40 43 40 42 45 51 54 60 64 61 57 56 53 51 53 51 49
61 85 105 115 115 118 128 120 112 120 129 134 133 112 84 71 95 134 33 347 5 13 26 36 40 37 37 43 42 46 50 52 52 52 55 54 52 51 50 52 52 48 47
36 71 107 111 117 120 127 125 119 122 125 122 121 122 138 142 152 135 143 1 0 347 13 29 37 32 33 39 42 47 49 50 51 52 53 51 48 45 46 48 46 46 46
23 9 104 113 115 129 129 120 116 115 121 123 129 132 144 148 139 135 130 131 63 352 6 18 18 25 27 37 38 40 46 48 51 54 54 51 48 45 44 43 43 44 43
200 176 123 114 114 130 132 120 111 111 114 114 114 122 118 110 126 136 144 135 96 28 18 350 2 15 16 33 35 43 44 45 52 54 52 50 47 45 43 41 43 41 39
181 149 134 122 108 106 114 116 108 108 107 100 105 105 93 82 94 114 127 138 138 128 310 314 336 352 18 36 37 49 45 44 51 52 52 50 46 43 41 41 43 41 40
165 148 144 138 121 114 110 111 107 103 102 90 96 94 81 82 81 85 111 110 118 141 160 269 272 325 19 42 40 49 48 46 49 51 49 48 46 45 43 39 36 34 32
172 173 162 152 149 142 131 132 129 124 114 97 87 100 91 97 92 86 94 101 105 120 138 283 334 1 36 37 30 43 45 46 43 45 39 41 42 42 40 35 32 30 28
176 170 150 148 154 151 145 153 145 129 131 128 116 102 87 102 99 101 110 115 126 134 142 150 357 8 9 5 31 45 44 47 47 41 33 32 30 29 29 27 27 25 23
151 145 146 155 163 159 151 153 144 134 134 135 135 135 136 120 107 113 127 129 133 120 123 138 141 16 1 14 28 30 32 24 23 26 24 21 17 14 13 12 11 14 21
160 162 161 164 165 159 153 147 137 135 133 122 125 141 156 153 149 148 133 133 127 115 115 123 127 38 346 341 25 16 354 352 348 6 0 350 355 1 356 349 346 353 7
169 163 151 149 151 155 163 154 149 149 146 131 102 113 150 159 164 160 145 144 135 126 123 127 136 95 326 335 301 286 288 328 323 354 351 339 356 356 339 331 325 320 323
161 144 150 155 159 176 164 160 149 148 149 148 148 139 104 102 141 140 147 148 146 143 153 147 162 197 246 244 243 233 245 343 306 320 338 312 0 315 308 307 311 309 300
159 152 159 158 176 192 169 163 157 148 148 157 163 154 137 101 101 107 109 120 152 166 161 157 172 212 221 218 189 215 233 240 248 267 39 295 320 304 303 304 315 315 311
164 171 172 175 182 200 177 168 156 145 142 157 172 175 168 180 150 139 120 101 76 35 192 175 194 222 229 201 189 200 211 259 280 300 145 270 297 297 311 305 307 306 306
165 168 164 168 171 199 175 163 148 140 142 161 174 167 179 194 192 148 131 129 69 347 13 156 203 231 243 194 155 117 104 47 297 289 242 244 289 305 301 299 306 303 300
168 159 155 169 172 187 176 166 155 145 151 166 176 207 206 199 191 162 153 156 190 254 304 41 43 29 47 114 158 169 177 194 262 274 256 227 278 320 303 301 320 312 305
Height
1538 1538 1537 1538 1538 1538 1538 1538 1538 1538 1538 1539 1539 1540 1540 1540 1540 1540 1540 1541 1541 1541 1541 1541 1540 1540 1540 1540 1540 1540 1540 1540 1540 1539 1539 1539 1538 1538 1538 1538 1537 1537 1537
1539 1539 1539 1539 1539 1539 1539 1539 1540 1540 1540 1540 1541 1541 1541 1541 1541 1542 1542 1542 1542 1542 1542 1542 1542 1542 1541 1541 1541 1541 1541 1541 1541 1540 1540 1539 1539 1539 1538 1538 1537 1537 1537
1540 1540 1540 1540 1540 1540 1541 1541 1541 1541 1542 1542 1542 1542 1543 1543 1543 1543 1544 1543 1543 1543 1543 1543 1543 1543 1543 1543 1542 1542 1542 1542 1541 1541 1540 1540 1540 1539 1539 1539 1538 1538 1537
1541 1541 1541 1541 1541 1542 1542 1542 1543 1543 1543 1543 1543 1544 1544 1544 1545 1545 1545 1545 1545 1545 1545 1545 1544 1544 1544 1544 1544 1543 1543 1543 1542 1542 1541 1541 1541 1540 1540 1539 1539 1538 1538
1542 1542 1542 1542 1543 1543 1543 1544 1544 1544 1544 1544 1545 1545 1546 1546 1546 1547 1547 1546 1546 1546 1546 1546 1546 1545 1545 1545 1545 1544 1544 1544 1543 1543 1542 1542 1541 1541 1540 1540 1539 1538 1538
1543 1543 1544 1544 1544 1545 1545 1545 1546 1546 1546 1546 1546 1547 1548 1548 1548 1548 1548 1548 1548 1547 1547 1546 1546 1546 1546 1546 1545 1545 1545 1545 1544 1544 1543 1542 1542 1541 1541 1540 1539 1539 1538
1544 1544 1545 1545 1546 1546 1546 1547 1547 1547 1547 1548 1548 1548 1549 1549 1549 1549 1549 1549 1549 1548 1548 1547 1547 1547 1547 1546 1546 1546 1546 1545 1545 1544 1544 1543 1542 1541 1541 1540 1539 1539 1538
1546 1546 1546 1546 1547 1547 1548 1548 1548 1549 1549 1549 1550 1550 1550 1552 1550 1550 1550 1550 1549 1549 1549 1548 1548 1547 1547 1547 1547 1547 1546 1546 1545 1545 1544 1544 1543 1542 1541 1541 1540 1539 1538
1547 1547 1548 1548 1548 1548 1549 1549 1549 1550 1550 1551 1551 1551 1551 1551 1551 1551 1551 1550 1550 1549 1549 1549 1549 1548 1548 1548 1548 1547 1547 1546 1546 1545 1545 1544 1543 1543 1542 1541 1540 1539 1538
1548 1548 1549 1549 1549 1549 1550 1550 1550 1551 1551 1551 1551 1552 1552 1552 1551 1551 1552 1551 1550 1550 1549 1549 1549 1549 1549 1549 1548 1548 1547 1547 1546 1546 1545 1545 1544 1543 1542 1541 1540 1539 1539
1549 1549 1550 1550 1550 1550 1550 1551 1551 1551 1551 1552 1552 1552 1552 1552 1551 1551 1551 1551 1551 1550 1550 1550 1550 1550 1550 1549 1549 1549 1548 1548 1547 1546 1546 1545 1544 1543 1543 1542 1541 1540 1539
1549 1550 1550 1550 1551 1551 1551 1551 1551 1551 1552 1552 1552 1552 1552 1552 1551 1551 1551 1551 1551 1551 1551 1551 1551 1550 1550 1550 1550 1549 1549 1548 1547 1547 1546 1545 1544 1544 1543 1542 1541 1539 1538
1549 1550 1550 1551 1551 1551 1551 1551 1551 1552 1552 1552 1552 1552 1552 1552 1552 1552 1551 1551 1551 1551 1551 1551 1551 1551 1551 1551 1550 1550 1549 1549 1548 1547 1546 1546 1545 1544 1543 1542 1540 1539 1538
1550 1550 1550 1551 1551 1551 1552 1552 1552 1552 1552 1552 1552 1552 1552 1552 1552 1552 1551 1551 1551 1551 1551 1552 1552 1552 1551 1551 1551 1550 1550 1549 1548 1547 1547 1546 1545 1544 1542 1541 1540 1539 1538
1550 1550 1551 1551 1551 1551 1552 1552 1552 1552 1552 1552 1552 1552 1551 1551 1551 1552 1552 1552 1552 1551 1552 1552 1552 1552 1551 1551 1551 1550 1550 1549 1548 1548 1547 1546 1545 1543 1542 1541 1540 1538 1537
1549 1550 1550 1550 1551 1551 1551 1551 1551 1552 1552 1552 1552 1552 1552 1552 1552 1552 1552 1552 1552 1552 1551 1552 1551 1551 1551 1551 1550 1550 1549 1548 1548 1547 1546 1545 1544 1543 1542 1540 1539 1538 1536
1549 1549 1550 1550 1550 1550 1550 1551 1551 1551 1551 1552 1552 1552 1552 1552 1551 1552 1552 1551 1551 1551 1551 1551 1551 1551 1551 1550 1550 1549 1549 1548 1547 1546 1545 1544 1543 1542 1541 1540 1538 1537 1535
1548 1548 1548 1549 1549 1549 1550 1550 1550 1551 1551 1551 1551 1551 1551 1551 1551 1551 1551 1551 1551 1551 1551 1550 1551 1550 1550 1550 1549 1549 1548 1547 1546 1545 1544 1543 1542 1541 1540 1538 1537 1535 1534
1546 1547 1547 1548 1548 1549 1549 1549 1549 1550 1550 1550 1551 1551 1551 1551 1551 1551 1551 1550 1550 1550 1550 1550 1550 1550 1549 1549 1548 1548 1547 1546 1545 1544 1543 1542 1541 1540 1538 1537 1536 1534 1533
1545 1545 1546 1547 1547 1548 1548 1548 1549 1549 1549 1550 1550 1550 1551 1551 1550 1550 1550 1550 1549 1549 1549 1549 1549 1548 1548 1548 1547 1546 1545 1544 1544 1543 1542 1541 1539 1538 1537 1535 1534 1533 1531
1543 1544 1544 1545 1546 1546 1547 1547 1548 1548 1549 1549 1549 1549 1550 1550 1550 1549 1549 1549 1549 1548 1548 1548 1547 1547 1546 1546 1545 1545 1544 1543 1542 1541 1540 1539 1538 1536 1535 1534 1532 1531 1530
1541 1542 1542 1543 1544 1545 1546 1546 1547 1547 1547 1548 1548 1548 1549 1549 1549 1549 1548 1548 1548 1547 1547 1546 1546 1545 1545 1544 1544 1543 1542 1541 1539 1539 1538 1537 1536 1534 1533 1531 1530 1529 1528
1539 1540 1540 1541 1542 1543 1544 1545 1545 1546 1546 1546 1547 1547 1547 1547 1547 1547 1547 1547 1546 1546 1546 1545 1544 1544 1543 1542 1542 1541 1540 1539 1538 1537 1535 1533 1533 1532 1531 1529 1528 1527 1525
1536 1537 1538 1539 1540 1541 1542 1543 1543 1544 1544 1545 1545 1545 1546 1546 1546 1545 1545 1545 1545 1544 1544 1543 1543 1542 1542 1541 1540 1539 1538 1537 1535 1534 1533 1531 1529 1528 1527 1526 1525 1524 1522
1534 1535 1536 1537 1538 1539 1540 1541 1541 1542 1542 1542 1543 1543 1543 1543 1544 1543 1543 1543 1542 1542 1542 1541 1541 1540 1539 1538 1537 1536 1535 1533 1532 1531 1530 1528 1526 1525 1524 1523 1522 1520 1519
1531 1532 1533 1534 1535 1536 1538 1538 1539 1540 1540 1540 1541 1541 1541 1541 1541 1541 1541 1540 1540 1540 1539 1539 1538 1538 1537 1536 1535 1534 1532 1531 1529 1528 1527 1526 1524 1522 1520 1519 1518 1517 1515